Location: Baumgarten
(49.0970°N, 12.7493°E)
Time: 08:37:12
(UTC+00:00)

Cosmos 2151 - Pass Details

Date: 05 July 2020
Orbit: 580 x 602 km, 82.5° (Epoch: 04 August)

Event Time Altitude Azimuth Distance (km) Brightness Sun altitude
Exits shadow 21:47:17 26° 135° (SE) 1,187 4.0 -15.7°
Maximum altitude 21:48:55 36° 92° (E) 954 3.8 -15.8°
Drops below altitude 10° 21:52:51 10° 25° (NNE) 1,942 6.3 -16.0°
Sets 21:55:11 0° 17° (NNE) 2,845 7.4 -16.1°
